Location: Unspecified
(0.0000°N, 0.0000°E)
Time: 21:07:46
(UTC+00:00)

Vanguard 1 - Pass Details

Date: 19 June 2025
Orbit: 649 x 3822 km, 34.2° (Epoch: 12 July)

Event Time Altitude Azimuth Distance (km) Brightness Sun altitude
Rises 20:07:38 0° 280° (W) 7,213 15.6 -28.7°
Reaches altitude 10° 20:14:35 10° 267° (W) 5,641 14.6 -30.2°
Maximum altitude 20:25:41 23° 222° (SW) 3,554 12.9 -32.7°
Enters shadow 20:30:16 18° 190° (S) 3,382 12.6 -33.7°
